Weather Roundup
Issued by NWS Corpus Christi, TX

Home | Current Version | Previous Version | Text Only | Print | Product List | Glossary On
Versions: 1 2 3 4 5 6 7 8 9 10 11 12 13 14 15 16 17 18 19 20 21 22 23 24 25 26 27 28 29 30 31 32 33 34 35 36 37 38 39 40 41 42 43 44 45 46 47 48 49 50
000
ASUS44 KCRP 230710
HRRCRP

SOUTH TEXAS REGIONAL WEATHER ROUNDUP
NATIONAL WEATHER SERVICE CORPUS CHRISTI TX
200 AM CDT SAT SEP 23 2017


TXZ229>244-230800-
...CORPUS CHRISTI AREA OBSERVATIONS...

CITY           SKY/WX    TMP DP  RH WIND       PRES   REMARKS
CORPUS CHRISTI PTCLDY    79  74  84 SE9       29.88S
NAS CORPUS CHR PTCLDY    82  75  79 SE10      29.87F
ROCKPORT       NOT AVBL
KINGSVILLE ARP FAIR      76  76 100 CALM      29.88S
KINGSVILLE NAS CLEAR     76  75  97 E5        29.87F
ALICE          NOT AVBL
$$

...VICTORIA AREA OBSERVATIONS...

CITY           SKY/WX    TMP DP  RH WIND       PRES   REMARKS
PORT LAVACA    NOT AVBL
VICTORIA       CLEAR     73  71  93 CALM      29.91R FOG
BEEVILLE       FAIR     N/A N/A N/A E3        29.90S
PLEASANTON     MOCLDY    75  73  92 CALM      29.92S
SAN ANTONIO    CLOUDY    76  71  85 SE12      29.94S
$$

...LAREDO AREA OBSERVATIONS...

CITY           SKY/WX    TMP DP  RH WIND       PRES   REMARKS
LAREDO         NOT AVBL
DEL RIO        NOT AVBL
MCALLEN        NOT AVBL
HEBBRONVILLE   PTCLDY    75  72  89 SE7       29.89F
$$

...OTHER TEXAS OBSERVATIONS...

CITY           SKY/WX    TMP DP  RH WIND       PRES   REMARKS
BROWNSVILLE    NOT AVBL
HOUSTON        CLEAR     76  73  91 CALM      29.92S
COL. STATION   NOT AVBL
AUSTIN         CLEAR     70  70 100 CALM      29.93S
WACO           CLEAR     76  68  76 SE9       29.93S
FORT WORTH     CLEAR     79  69  71 S8        29.92S
WICHITA FALLS  CLEAR     74  65  73 SE12      29.89F
LUBBOCK        CLEAR     72  59  63 S15       29.92S
EL PASO        CLOUDY    81  44  27 S13       29.85R
$$

...MARINE OBSERVATIONS...

STATION/POSITION TIME  SKY/WX   TEMP    WIND        PRES    VSBY  WAVE   SWELL
                                AIR SEA DIR/SP/G                  HT/PER HT/PER
                 (UTC)          (F)     (DEG/KT/KT) (MB)    (MI)  (FT/S) (FT/S)
PORT ARANSAS     NOT AVBL
BUOY 90 E PORT A 0550            82 84   80/ 14/ 16 1012.1          3/ 6
BUOY 200 E PT IS 0550            84 85   90/ 14/ 16 1011.5          3/ 4
BUOY 15 E GALVES 0550            81 83  120/ 10/ 10 1012.9          2/ 5   2/ 5
$$




USA.gov is the U.S. government's official web portal to all federal, state and local government web resources and services.